BAW47C LEBL-EGLL

Flight info

Callsign BAW47C
Flight time 1h 40m
Altitude 32000
Route NATPI DCT EVNAM DCT AGN DCT SECHE DCT UVELI DCT CNA DCT MANAK DCT EPAPU DCT RINSO DCT EKRAS DCT REVTU DCT BOLRO UP87 ROXOG
Aircraft A320/M-SDE3FGHIRWY/LB1

Departure

Time 2026-05-04 09:42
Airport Josep Tarradellas Barcelona-El Prat Airport (LEBL)

Arrival

Time 2026-05-04 11:23
Airport London Heathrow Airport (EGLL)
Time Latitude Longitude Altitude Speed Heading
2026-05-04 09:31 41.29133 2.07895 19 ft 0 kts 155°
2026-05-04 09:34 41.29141 2.07890 19 ft 4 kts 155°
2026-05-04 09:34 41.29166 2.07874 21 ft 4 kts 153°
2026-05-04 09:34 41.29190 2.07860 22 ft 4 kts 167°
2026-05-04 09:34 41.29210 2.07859 21 ft 3 kts 237°
2026-05-04 09:35 41.29212 2.07863 21 ft 0 kts 245°
2026-05-04 09:37 41.29258 2.07791 18 ft 7 kts 334°
2026-05-04 09:37 41.29315 2.07756 17 ft 11 kts 335°
2026-05-04 09:38 41.29393 2.07735 15 ft 13 kts 28°
2026-05-04 09:38 41.29439 2.07845 17 ft 15 kts 66°
2026-05-04 09:38 41.29479 2.07961 17 ft 12 kts 65°
2026-05-04 09:38 41.29517 2.08073 15 ft 14 kts 65°
2026-05-04 09:39 41.29560 2.08201 16 ft 16 kts 69°
2026-05-04 09:39 41.29582 2.08343 19 ft 15 kts 65°
2026-05-04 09:39 41.29622 2.08478 20 ft 16 kts 92°
2026-05-04 09:39 41.29538 2.08568 16 ft 18 kts 156°
2026-05-04 09:40 41.29413 2.08641 15 ft 20 kts 156°
2026-05-04 09:40 41.29323 2.08703 17 ft 9 kts 125°
2026-05-04 09:40 41.29350 2.08745 18 ft 0 kts 20°
2026-05-04 09:42 41.33541 2.11411 1268 ft 168 kts 57°
2026-05-04 09:43 41.33840 2.12875 1732 ft 169 kts 98°
2026-05-04 09:43 41.33285 2.14229 2130 ft 174 kts 146°
2026-05-04 09:43 41.32144 2.14797 2518 ft 185 kts 176°
2026-05-04 09:43 41.30801 2.14854 2998 ft 198 kts 185°
2026-05-04 09:44 41.29395 2.14758 3597 ft 207 kts 187°
2026-05-04 09:44 41.27951 2.14448 4141 ft 213 kts 198°
2026-05-04 09:44 41.26579 2.13660 4658 ft 221 kts 218°
2026-05-04 09:46 41.18900 2.03944 9957 ft 221 kts 223°
2026-05-04 09:46 41.17986 2.02238 10341 ft 239 kts 252°
2026-05-04 09:46 41.17977 2.00014 10831 ft 255 kts 284°
2026-05-04 09:47 41.18749 1.97819 11501 ft 262 kts 293°
2026-05-04 09:47 41.19597 1.95669 12235 ft 264 kts 293°
2026-05-04 09:49 41.27759 1.80602 15158 ft 349 kts 311°
2026-05-04 09:49 41.29517 1.78297 15408 ft 359 kts 311°
2026-05-04 09:49 41.31304 1.75950 15829 ft 363 kts 311°
2026-05-04 09:51 41.42229 1.61413 18669 ft 377 kts 310°
2026-05-04 09:51 41.44086 1.58930 19099 ft 379 kts 309°
2026-05-04 09:51 41.45950 1.56431 19525 ft 382 kts 309°
2026-05-04 09:51 41.47851 1.53935 19940 ft 386 kts 314°
2026-05-04 09:52 41.50076 1.51840 20365 ft 398 kts 326°
2026-05-04 09:52 41.52660 1.50398 20737 ft 410 kts 339°
2026-05-04 09:52 41.55483 1.49652 21115 ft 417 kts 346°
2026-05-04 09:52 41.58367 1.49033 21488 ft 421 kts 346°
2026-05-04 09:53 41.61271 1.48410 21882 ft 424 kts 346°
2026-05-04 09:53 41.64191 1.47778 22258 ft 427 kts 346°
2026-05-04 09:53 41.67134 1.47139 22641 ft 429 kts 346°
2026-05-04 09:53 41.70085 1.46494 23006 ft 432 kts 346°
2026-05-04 09:54 41.73057 1.45839 23368 ft 435 kts 346°
2026-05-04 09:54 41.76052 1.45176 23688 ft 438 kts 345°
2026-05-04 09:54 41.79065 1.44506 24030 ft 439 kts 344°
2026-05-04 09:54 41.82086 1.43839 24367 ft 441 kts 344°
2026-05-04 09:55 41.85121 1.43170 24695 ft 442 kts 344°
2026-05-04 09:55 41.88170 1.42499 25014 ft 444 kts 344°
2026-05-04 09:55 41.91227 1.41820 25326 ft 446 kts 344°
2026-05-04 09:55 41.94291 1.41136 25633 ft 448 kts 344°
2026-05-04 09:56 41.97370 1.40450 25926 ft 449 kts 344°
2026-05-04 09:56 42.00462 1.39763 26242 ft 451 kts 344°
2026-05-04 09:56 42.03562 1.39073 26536 ft 453 kts 344°
2026-05-04 09:56 42.06674 1.38378 26827 ft 455 kts 343°
2026-05-04 09:57 42.09803 1.37678 27110 ft 456 kts 343°
2026-05-04 09:57 42.12946 1.36977 27400 ft 459 kts 344°
2026-05-04 09:57 42.16100 1.36278 27687 ft 460 kts 344°
2026-05-04 09:57 42.19263 1.35578 27917 ft 462 kts 344°
2026-05-04 09:58 42.22440 1.34874 28210 ft 463 kts 344°
2026-05-04 09:58 42.25624 1.34163 28498 ft 465 kts 344°
2026-05-04 09:58 42.28816 1.33443 28745 ft 466 kts 344°
2026-05-04 10:00 42.51451 1.28332 30314 ft 477 kts 344°
2026-05-04 10:00 42.54731 1.27594 30515 ft 478 kts 344°
2026-05-04 10:02 42.77679 1.22643 31979 ft 479 kts 348°
2026-05-04 10:04 42.99829 1.19860 31973 ft 481 kts 348°
2026-05-04 10:04 43.06541 1.18894 31966 ft 486 kts 348°
2026-05-04 10:05 43.13286 1.17943 31955 ft 488 kts 348°
2026-05-04 10:05 43.20047 1.17024 31960 ft 488 kts 348°
2026-05-04 10:06 43.26800 1.16090 31973 ft 489 kts 348°
2026-05-04 10:06 43.33553 1.15128 31974 ft 489 kts 348°
2026-05-04 10:08 43.57271 1.11776 31983 ft 488 kts 345°
2026-05-04 10:08 43.60480 1.10667 31980 ft 478 kts 334°
2026-05-04 10:08 43.63480 1.08789 31991 ft 469 kts 323°
2026-05-04 10:09 43.69074 1.04072 31978 ft 468 kts 322°
2026-05-04 10:09 43.74435 0.99521 31971 ft 469 kts 322°
2026-05-04 10:10 43.79991 0.94805 31956 ft 471 kts 322°
2026-05-04 10:10 43.85625 0.89998 31962 ft 473 kts 323°
2026-05-04 10:11 43.91391 0.85608 31958 ft 480 kts 330°
2026-05-04 10:11 43.97453 0.81710 31963 ft 481 kts 330°
2026-05-04 10:12 44.03532 0.77806 31987 ft 481 kts 330°
2026-05-04 10:12 44.09616 0.73874 31987 ft 483 kts 330°
2026-05-04 10:13 44.15713 0.69912 31972 ft 484 kts 330°
2026-05-04 10:13 44.21804 0.65940 31972 ft 485 kts 330°
2026-05-04 10:14 44.27931 0.61950 31974 ft 486 kts 330°
2026-05-04 10:16 44.49437 0.48206 32448 ft 484 kts 327°
2026-05-04 10:16 44.52407 0.46035 32442 ft 484 kts 327°
2026-05-04 10:16 44.58430 0.41771 31954 ft 483 kts 329°
2026-05-04 10:17 44.64535 0.37708 31997 ft 487 kts 330°
2026-05-04 10:19 44.89085 0.21360 31968 ft 488 kts 330°
2026-05-04 10:19 44.95216 0.17219 31969 ft 488 kts 330°
2026-05-04 10:20 45.01348 0.13088 31984 ft 488 kts 330°
2026-05-04 10:20 45.07480 0.08938 31980 ft 488 kts 330°
2026-05-04 10:21 45.13606 0.04775 31967 ft 488 kts 330°
2026-05-04 10:21 45.19725 0.00613 31992 ft 488 kts 330°
2026-05-04 10:22 45.28927 -0.05651 31988 ft 488 kts 330°
2026-05-04 10:23 45.35052 -0.09840 31985 ft 488 kts 330°
2026-05-04 10:25 45.59529 -0.26695 31988 ft 489 kts 330°
2026-05-04 10:25 45.65610 -0.31027 31989 ft 486 kts 324°
2026-05-04 10:26 45.70968 -0.36785 31978 ft 481 kts 317°
2026-05-04 10:26 45.76220 -0.42710 31972 ft 481 kts 317°
2026-05-04 10:27 45.81476 -0.48648 31976 ft 481 kts 317°
2026-05-04 10:27 45.86726 -0.54604 31976 ft 481 kts 317°
2026-05-04 10:28 45.91982 -0.60575 31978 ft 481 kts 317°
2026-05-04 10:28 45.97201 -0.66509 31987 ft 481 kts 317°
2026-05-04 10:29 46.02449 -0.72491 31983 ft 481 kts 317°
2026-05-04 10:29 46.07690 -0.78486 31980 ft 481 kts 317°
2026-05-04 10:30 46.12929 -0.84500 31995 ft 482 kts 317°
2026-05-04 10:30 46.18174 -0.90537 31991 ft 483 kts 318°
2026-05-04 10:30 46.20998 -0.93184 31973 ft 489 kts 329°
2026-05-04 10:31 46.24170 -0.95009 31984 ft 494 kts 342°
2026-05-04 10:32 46.47831 -1.02318 31983 ft 498 kts 345°
2026-05-04 10:33 46.54607 -1.04418 31984 ft 498 kts 345°
2026-05-04 10:33 46.61389 -1.06517 31989 ft 498 kts 346°
2026-05-04 10:34 46.68167 -1.08610 31997 ft 498 kts 346°
2026-05-04 10:34 46.74950 -1.10709 31994 ft 498 kts 346°
2026-05-04 10:35 46.81736 -1.12831 31999 ft 498 kts 345°
2026-05-04 10:35 46.88514 -1.14954 31994 ft 498 kts 346°
2026-05-04 10:36 46.95301 -1.17078 31997 ft 498 kts 346°
2026-05-04 10:36 47.02071 -1.19210 31996 ft 498 kts 346°
2026-05-04 10:37 47.08849 -1.21353 31994 ft 497 kts 346°
2026-05-04 10:37 47.15612 -1.23487 32011 ft 497 kts 346°
2026-05-04 10:39 47.39272 -1.30991 32002 ft 497 kts 346°
2026-05-04 10:40 47.46029 -1.33157 31987 ft 497 kts 346°
2026-05-04 10:40 47.52789 -1.35318 31993 ft 497 kts 346°
2026-05-04 10:41 47.59556 -1.37485 31998 ft 497 kts 346°
2026-05-04 10:41 47.66317 -1.39663 31997 ft 498 kts 346°
2026-05-04 10:42 47.73152 -1.41351 31994 ft 500 kts 356°
2026-05-04 10:42 47.80093 -1.41876 31997 ft 500 kts 356°
2026-05-04 10:43 47.87041 -1.42392 31998 ft 500 kts 356°
2026-05-04 10:45 48.13641 -1.44378 32005 ft 500 kts 356°
2026-05-04 10:45 48.20590 -1.44862 32001 ft 499 kts 356°
2026-05-04 10:46 48.27527 -1.45094 31988 ft 494 kts 358°
2026-05-04 10:46 48.34415 -1.45377 31954 ft 497 kts 355°
2026-05-04 10:47 48.41309 -1.46188 31959 ft 497 kts 354°
2026-05-04 10:47 48.48215 -1.46940 31970 ft 498 kts 356°
2026-05-04 10:49 48.75961 -1.48880 31988 ft 499 kts 356°
2026-05-04 10:50 48.82904 -1.49400 31989 ft 499 kts 356°
2026-05-04 10:52 49.05509 -1.54915 31986 ft 498 kts 346°
2026-05-04 10:52 49.12279 -1.57096 31994 ft 498 kts 346°
2026-05-04 10:54 49.38660 -1.65650 32022 ft 498 kts 346°
2026-05-04 10:56 49.61332 -1.72393 32034 ft 499 kts
2026-05-04 10:56 49.64794 -1.72142 32036 ft 498 kts
2026-05-04 10:57 49.71717 -1.71551 32032 ft 498 kts
2026-05-04 10:57 49.78636 -1.70958 32035 ft 498 kts
2026-05-04 10:58 49.85558 -1.70379 32028 ft 498 kts
2026-05-04 10:58 49.92470 -1.69804 32020 ft 497 kts
2026-05-04 10:59 49.99368 -1.69102 32014 ft 497 kts
2026-05-04 10:59 50.02736 -1.67916 31589 ft 496 kts 17°
2026-05-04 10:59 50.06016 -1.66349 31222 ft 486 kts 18°
2026-05-04 10:59 50.09188 -1.64793 31072 ft 470 kts 18°
2026-05-04 11:00 50.12219 -1.63288 30845 ft 447 kts 18°
2026-05-04 11:01 50.31832 -1.53709 25606 ft 416 kts 17°
2026-05-04 11:02 50.33201 -1.53038 25182 ft 415 kts 17°
2026-05-04 11:02 50.35947 -1.51687 24441 ft 411 kts 17°
2026-05-04 11:05 50.68976 -1.29854 14696 ft 324 kts 29°
2026-05-04 11:06 50.70950 -1.28150 14453 ft 322 kts 29°
2026-05-04 11:06 50.72915 -1.26456 14218 ft 322 kts 29°
2026-05-04 11:06 50.74870 -1.24773 13986 ft 319 kts 29°
2026-05-04 11:06 50.76807 -1.23070 13734 ft 318 kts 31°
2026-05-04 11:08 50.89611 -1.09773 13022 ft 315 kts 34°
2026-05-04 11:10 51.02115 -0.95684 12682 ft 317 kts 49°
2026-05-04 11:12 51.12103 -0.77842 10517 ft 302 kts 49°
2026-05-04 11:12 51.13501 -0.75342 10219 ft 300 kts 49°
2026-05-04 11:12 51.14871 -0.72890 9922 ft 299 kts 49°
2026-05-04 11:12 51.16246 -0.70426 9605 ft 297 kts 49°
2026-05-04 11:13 51.17614 -0.67971 9304 ft 295 kts 49°
2026-05-04 11:13 51.18988 -0.65503 9007 ft 293 kts 49°
2026-05-04 11:13 51.20338 -0.63080 8718 ft 291 kts 49°
2026-05-04 11:13 51.21680 -0.60668 8426 ft 289 kts 49°
2026-05-04 11:14 51.22113 -0.59889 8322 ft 289 kts 49°
2026-05-04 11:14 51.24385 -0.55801 7841 ft 285 kts 49°
2026-05-04 11:14 51.25696 -0.53440 7560 ft 283 kts 49°
2026-05-04 11:16 51.33911 -0.38590 6489 ft 245 kts 49°
2026-05-04 11:16 51.35045 -0.36542 6142 ft 246 kts 49°
2026-05-04 11:16 51.36175 -0.34494 5842 ft 245 kts 49°
2026-05-04 11:17 51.37297 -0.32458 5564 ft 243 kts 49°
2026-05-04 11:17 51.38415 -0.30437 5271 ft 242 kts 49°
2026-05-04 11:19 51.46487 -0.17938 3299 ft 228 kts 356°
2026-05-04 11:19 51.47844 -0.18803 3034 ft 228 kts 317°
2026-05-04 11:19 51.48576 -0.21010 2816 ft 227 kts 276°
2026-05-04 11:19 51.48256 -0.23421 2539 ft 223 kts 242°
2026-05-04 11:20 51.47650 -0.25647 2257 ft 214 kts 264°
2026-05-04 11:20 51.47751 -0.27973 2008 ft 208 kts 277°
2026-05-04 11:20 51.47802 -0.30260 1760 ft 200 kts 271°
2026-05-04 11:20 51.47793 -0.32407 1457 ft 186 kts 272°
2026-05-04 11:22 51.47765 -0.43542 116 ft 138 kts 271°
2026-05-04 11:22 51.47775 -0.44908 91 ft 72 kts 271°
2026-05-04 11:23 51.47764 -0.45357 87 ft 27 kts 254°
2026-05-04 11:23 51.47691 -0.45464 86 ft 7 kts 191°
2026-05-04 11:24 51.47564 -0.45738 88 ft 8 kts 195°
2026-05-04 11:25 51.47520 -0.45792 86 ft 9 kts 255°
2026-05-04 11:25 51.47518 -0.45913 86 ft 12 kts 269°
2026-05-04 11:25 51.47518 -0.45928 86 ft 13 kts 269°
2026-05-04 11:26 51.47517 -0.46006 86 ft 4 kts 269°
2026-05-04 11:27 51.47494 -0.46871 86 ft 14 kts 269°
2026-05-04 11:28 51.47493 -0.47042 86 ft 17 kts 269°
2026-05-04 11:28 51.47492 -0.47239 86 ft 20 kts 269°
2026-05-04 11:28 51.47491 -0.47416 86 ft 15 kts 269°
2026-05-04 11:28 51.47490 -0.47596 86 ft 18 kts 269°
2026-05-04 11:29 51.47490 -0.47807 86 ft 20 kts 270°
2026-05-04 11:29 51.47490 -0.48030 86 ft 23 kts 270°
2026-05-04 11:29 51.47488 -0.48246 87 ft 5 kts 269°
2026-05-04 11:29 51.47488 -0.48319 88 ft 8 kts 270°
2026-05-04 11:31 51.47488 -0.48409 89 ft 0 kts 270°
2026-05-04 11:33 51.47370 -0.48494 90 ft 3 kts 234°
2026-05-04 11:33 51.47363 -0.48535 86 ft 2 kts 263°
2026-05-04 11:33 51.47361 -0.48569 86 ft 4 kts 269°
2026-05-04 11:34 51.47362 -0.48571 86 ft 0 kts 274°